GW3838 Weather Reports


Display with metric or nautical units.
time (UTC)temp
F
wind
direction
speed
MPH
gust
MPH
rain 1hr
in
rain 24hr
in
rain mn
in
humidity
%
barometer
mb
20260508085230 63 336 2.0 5.0 0.00 0.00 0.00 84 1019.6
20260508084726 63 38 2.0 3.0 0.00 0.00 0.00 84 1019.4
20260508084224 63 87 2.0 2.0 0.00 0.00 0.00 84 1019.4
20260508083721 64 23 3.0 3.0 0.00 0.00 0.00 84 1019.3
20260508083219 64 60 2.0 2.0 0.00 0.00 0.00 84 1019.4
20260508082713 64 33 3.0 3.0 0.00 0.00 0.00 84 1019.5
20260508082211 64 73 2.0 2.0 0.00 0.00 0.00 84 1019.5
20260508081708 64 73 2.0 3.0 0.00 0.00 0.00 83 1019.6
20260508081205 64 81 1.0 3.0 0.00 0.00 0.00 84 1019.5
20260508080702 64 91 2.0 2.0 0.00 0.00 0.00 83 1019.7
20260508080200 64 353 3.0 5.0 0.00 0.00 0.00 82 1019.8
20260508075656 64 105 1.0 2.0 0.00 0.00 0.00 82 1019.3
20260508075153 64 89 2.0 2.0 0.00 0.00 0.00 82 1019.8
20260508074651 65 26 2.0 5.0 0.00 0.00 0.00 82 1019.9
20260508074148 64 349 4.0 6.0 0.00 0.00 0.00 81 1020.1
20260508073645 65 98 1.0 2.0 0.00 0.00 0.00 82 1019.7
20260508073143 65 1 3.0 5.0 0.00 0.00 0.00 82 1019.8
20260508072638 65 353 3.0 3.0 0.00 0.00 0.00 82 1019.8
20260508072136 65 88 1.0 2.0 0.00 0.00 0.00 82 1019.7
20260508071633 65 54 2.0 2.0 0.00 0.00 0.00 82 1019.8
20260508071131 65 6 2.0 3.0 0.00 0.00 0.00 81 1019.7
20260508070628 65 46 2.0 2.0 0.00 0.00 0.00 81 1019.8
20260508070127 65 60 2.0 2.0 0.00 0.00 0.00 82 1019.8
20260508065624 65 33 2.0 3.0 0.00 0.00 0.00 82 1019.9
20260508065122 65 74 2.0 2.0 0.00 0.00 0.00 82 1019.9
20260508064620 65 351 3.0 3.0 0.00 0.00 0.00 82 1019.8
20260508064118 65 60 2.0 3.0 0.00 0.00 0.00 83 1019.9
20260508063615 65 357 2.0 3.0 0.00 0.00 0.00 83 1020.0
20260508063113 65 24 3.0 3.0 0.00 0.00 0.00 83 1020.1
20260508062610 65 0 2.0 3.0 0.00 0.00 0.00 84 1020.2
20260508062106 66 358 2.0 2.0 0.00 0.00 0.00 83 1020.2
20260508061604 66 351 3.0 3.0 0.00 0.00 0.00 83 1020.0
20260508061101 66 89 2.0 2.0 0.00 0.00 0.00 83 1020.1
20260508060558 66 3 2.0 3.0 0.00 0.00 0.00 82 1020.0
20260508060055 66 3 3.0 3.0 0.00 0.00 0.00 83 1020.1
20260508055550 66 358 3.0 6.0 0.00 0.00 0.00 83 1020.0
20260508055048 66 13 3.0 5.0 0.00 0.00 0.00 84 1020.1
20260508054544 66 336 3.0 6.0 0.00 0.00 0.00 85 1020.0
20260508054041 66 350 3.0 5.0 0.00 0.00 0.00 85 1020.1
20260508053538 66 355 5.0 6.0 0.00 0.00 0.00 85 1020.1
20260508053036 66 345 3.0 3.0 0.00 0.00 0.00 86 1020.1
20260508052533 67 52 2.0 5.0 0.00 0.00 0.00 86 1020.1
20260508052030 67 357 3.0 5.0 0.00 0.00 0.00 87 1019.9
20260508051526 67 1 3.0 6.0 0.00 0.00 0.00 87 1020.1
20260508051021 67 351 2.0 3.0 0.00 0.00 0.00 88 1020.0
20260508050513 67 352 3.0 3.0 0.00 0.00 0.00 88 1019.9
20260508050010 67 337 5.0 7.0 0.00 0.00 0.00 88 1019.8
20260508045506 67 109 1.0 2.0 0.00 0.00 0.00 88 1019.8
20260508045004 68 72 1.0 3.0 0.00 0.00 0.00 88 1019.8
20260508044501 68 350 4.0 5.0 0.00 0.00 0.00 87 1019.9
20260508043956 68 14 3.0 3.0 0.00 0.00 0.00 87 1019.7
20260508043453 68 355 5.0 5.0 0.00 0.00 0.00 86 1019.7
20260508042949 68 340 5.0 6.0 0.00 0.00 0.00 87 1019.6
20260508042448 68 44 3.0 11.0 0.00 0.00 0.00 87 1019.8
20260508041944 69 6 6.0 7.0 0.00 0.00 0.00 89 1019.5
20260508041441 69 326 4.0 7.0 0.00 0.00 0.00 90 1019.4
20260508040938 69 350 8.0 13.0 0.00 0.00 0.00 92 1019.6
20260508040435 69 1 5.0 8.0 0.00 0.00 0.00 94 1019.6
20260508035933 69 354 6.0 10.0 0.00 0.40 0.40 95 1019.4
20260508035429 69 356 7.0 11.0 0.00 0.40 0.40 96 1019.2
20260508034926 70 348 5.0 8.0 0.00 0.40 0.40 97 1019.1
20260508034424 70 343 6.0 9.0 0.00 0.40 0.40 97 1019.4
20260508033920 70 355 4.0 6.0 0.00 0.40 0.40 97 1019.4
20260508033418 70 352 7.0 10.0 0.00 0.40 0.40 97 1019.4
20260508032915 71 38 2.0 6.0 0.00 0.40 0.40 98 1019.2
20260508032412 71 229 3.0 7.0 0.00 0.40 0.40 98 1019.1
20260508031909 71 5 7.0 9.0 0.00 0.40 0.40 98 1019.2
20260508031407 71 11 5.0 6.0 0.00 0.40 0.40 98 1019.0
20260508030902 71 150 0.0 0.0 0.00 0.40 0.40 98 1018.8
20260508030359 71 165 0.0 0.0 0.00 0.40 0.40 98 1018.8
20260508025856 71 135 0.0 2.0 0.00 0.40 0.40 98 1018.8
20260508025353 71 167 0.0 1.0 0.00 0.40 0.40 98 1018.6
20260508024850 71 166 0.0 1.0 0.00 0.40 0.40 98 1018.4
20260508024346 71 220 2.0 5.0 0.00 0.40 0.40 98 1018.5
20260508023838 71 188 1.0 2.0 0.00 0.40 0.40 97 1018.6
20260508023335 71 176 2.0 3.0 0.00 0.40 0.40 97 1018.5
20260508022831 71 182 1.0 1.0 0.00 0.40 0.40 97 1018.4
20260508022327 71 180 1.0 2.0 0.00 0.40 0.40 97 1018.3
20260508021824 71 181 1.0 2.0 0.00 0.40 0.40 97 1018.2
20260508021320 71 188 1.0 2.0 0.00 0.40 0.40 97 1018.0
20260508020816 71 173 0.0 2.0 0.00 0.40 0.40 97 1018.2
20260508020314 71 172 1.0 2.0 0.00 0.40 0.40 97 1018.1
20260508015811 71 178 1.0 2.0 0.00 0.40 0.40 97 1018.1
20260508015309 71 176 1.0 1.0 0.00 0.40 0.40 96 1018.2
20260508014805 71 176 0.0 2.0 0.00 0.40 0.40 96 1017.8
20260508014302 71 186 2.0 2.0 0.00 0.40 0.40 96 1017.7
20260508013757 71 192 2.0 2.0 0.00 0.40 0.40 96 1017.9
20260508013254 71 181 1.0 2.0 0.00 0.40 0.40 96 1017.7
20260508012752 71 185 1.0 1.0 0.00 0.40 0.40 96 1017.7
20260508012249 71 185 1.0 2.0 0.00 0.40 0.40 95 1017.6
20260508011747 72 184 1.0 2.0 0.00 0.40 0.40 95 1017.4
20260508011243 72 183 1.0 1.0 0.00 0.40 0.40 95 1017.5
20260508010741 72 180 1.0 1.0 0.00 0.40 0.40 95 1017.5
20260508010239 72 176 1.0 2.0 0.00 0.40 0.40 94 1017.0
20260508005735 72 175 1.0 1.0 0.00 0.40 0.40 94 1017.5
20260508005232 72 171 1.0 1.0 0.00 0.40 0.40 94 1017.4
20260508004727 73 171 0.0 0.0 0.00 0.40 0.40 93 1017.6
20260508004224 73 171 0.0 2.0 0.00 0.40 0.40 93 1017.3
20260508003721 73 171 0.0 2.0 0.00 0.40 0.40 93 1017.1
20260508003219 73 173 0.0 1.0 0.00 0.40 0.40 93 1017.2
20260508002715 73 187 1.0 2.0 0.00 0.40 0.40 92 1017.0
20260508002212 73 152 1.0 1.0 0.00 0.40 0.40 92 1017.0
20260508001708 74 205 2.0 5.0 0.00 0.40 0.40 92 1017.0
20260508001203 74 262 4.0 5.0 0.00 0.40 0.40 91 1016.8
20260508000700 74 182 1.0 2.0 0.00 0.40 0.40 91 1016.8
20260508000157 74 192 2.0 3.0 0.00 0.40 0.40 90 1017.2
20260507235653 74 278 2.0 3.0 0.00 0.40 0.40 90 1017.1
20260507235151 75 221 3.0 5.0 0.00 0.40 0.40 90 1017.0
20260507234648 75 223 2.0 3.0 0.00 0.40 0.40 89 1017.0
20260507234144 75 338 3.0 3.0 0.00 0.40 0.40 89 1016.9
20260507233641 75 223 1.0 9.0 0.00 0.40 0.40 89 1016.8
20260507233140 75 231 2.0 6.0 0.00 0.40 0.40 88 1016.7
20260507232636 75 216 4.0 8.0 0.00 0.40 0.40 88 1016.7
20260507232133 76 136 1.0 3.0 0.00 0.40 0.40 88 1016.8
20260507231629 75 331 4.0 6.0 0.00 0.40 0.40 88 1016.8
20260507231127 75 342 2.0 6.0 0.00 0.40 0.40 88 1016.7
20260507230623 76 244 3.0 5.0 0.00 0.40 0.40 88 1016.9
20260507230121 76 204 2.0 5.0 0.00 0.40 0.40 88 1016.7
20260507225615 76 238 2.0 2.0 0.00 0.40 0.40 88 1016.8
20260507225112 76 266 4.0 5.0 0.00 0.40 0.40 88 1016.6
20260507224607 76 310 4.0 7.0 0.00 0.40 0.40 88 1016.6
20260507224104 76 273 2.0 9.0 0.00 0.40 0.40 88 1016.5
20260507223600 76 210 2.0 3.0 0.00 0.40 0.40 89 1016.4
20260507223057 75 11 3.0 7.0 0.00 0.40 0.40 89 1016.4
20260507222554 75 323 2.0 8.0 0.00 0.40 0.40 90 1016.7
20260507222051 75 327 4.0 6.0 0.00 0.40 0.40 90 1016.6
20260507221547 75 269 6.0 13.0 0.00 0.40 0.40 91 1016.5
20260507221044 75 4 4.0 8.0 0.00 0.40 0.40 92 1016.4
20260507220541 75 9 10.0 15.0 0.00 0.40 0.40 92 1016.5
20260507220039 76 305 5.0 13.0 0.00 0.40 0.40 92 1016.5
20260507215535 76 273 3.0 6.0 0.00 0.40 0.40 91 1016.3
20260507215033 76 324 4.0 7.0 0.00 0.40 0.40 90 1016.4
20260507214530 77 293 4.0 6.0 0.00 0.40 0.40 89 1016.2
20260507214025 77 299 3.0 7.0 0.00 0.40 0.40 88 1016.2
20260507213522 77 220 2.0 5.0 0.00 0.40 0.40 88 1016.2
20260507213019 77 283 4.0 5.0 0.00 0.40 0.40 87 1016.2
20260507212515 77 176 1.0 5.0 0.00 0.40 0.40 87 1016.1
20260507212012 78 286 5.0 7.0 0.00 0.40 0.40 86 1016.1
20260507211508 78 147 2.0 11.0 0.00 0.40 0.40 85 1016.3
20260507210959 78 278 5.0 7.0 0.00 0.40 0.40 85 1016.2
20260507210456 78 344 6.0 7.0 0.00 0.40 0.40 84 1016.0
20260507205953 78 48 4.0 7.0 0.00 0.40 0.40 84 1016.2
20260507205450 79 358 12.0 20.0 0.00 0.40 0.40 81 1016.2
20260507204946 79 296 4.0 9.0 0.00 0.40 0.40 80 1015.9
20260507204442 79 252 5.0 11.0 0.00 0.40 0.40 80 1015.8
20260507203940 79 295 4.0 8.0 0.00 0.40 0.40 80 1015.8
20260507203438 79 182 5.0 20.0 0.00 0.40 0.40 80 1015.8
20260507202934 79 227 11.0 14.0 0.00 0.40 0.40 79 1015.8
20260507202431 79 232 8.0 14.0 0.00 0.40 0.40 79 1016.1
20260507201926 79 229 4.0 11.0 0.00 0.40 0.40 79 1015.9
20260507201416 79 205 3.0 9.0 0.00 0.40 0.40 80 1016.1
20260507200913 79 294 4.0 13.0 0.00 0.40 0.40 80 1016.0
20260507200409 78 309 4.0 9.0 0.00 0.40 0.40 81 1015.8
20260507195904 78 129 3.0 11.0 0.00 0.40 0.40 82 1016.2
20260507195403 78 254 4.0 6.0 0.00 0.40 0.40 82 1016.1
20260507194859 77 235 3.0 6.0 0.00 0.40 0.40 82 1016.2
20260507194356 77 230 9.0 9.0 0.00 0.40 0.40 83 1016.3
20260507193852 77 219 9.0 11.0 0.00 0.40 0.40 83 1016.2
20260507193349 77 235 6.0 9.0 0.00 0.40 0.40 83 1016.3
20260507192845 77 244 4.0 7.0 0.00 0.40 0.40 83 1016.5
20260507192342 76 231 7.0 15.0 0.00 0.40 0.40 83 1016.6
20260507191838 76 261 6.0 11.0 0.00 0.40 0.40 84 1016.5
20260507191335 76 223 3.0 5.0 0.00 0.40 0.40 85 1016.6
20260507190832 76 192 5.0 8.0 0.00 0.40 0.40 84 1016.5
20260507190330 76 163 1.0 6.0 0.00 0.40 0.40 83 1016.8
20260507185829 77 207 4.0 7.0 0.00 0.40 0.40 81 1016.6
20260507185325 77 247 7.0 11.0 0.00 0.40 0.40 80 1016.8
20260507184822 77 254 5.0 11.0 0.00 0.40 0.40 80 1016.8
20260507184320 78 257 5.0 10.0 0.00 0.40 0.40 79 1016.7
20260507183817 78 223 7.0 9.0 0.00 0.40 0.40 79 1017.0
20260507183314 78 242 8.0 17.0 0.00 0.40 0.40 78 1017.3
20260507182811 78 278 4.0 14.0 0.00 0.40 0.40 79 1017.0
20260507182307 78 290 5.0 9.0 0.00 0.40 0.40 79 1017.0
20260507181803 78 276 9.0 14.0 0.00 0.40 0.40 79 1017.0
20260507181259 78 222 4.0 8.0 0.00 0.40 0.40 80 1016.5
20260507180756 78 270 7.0 15.0 0.00 0.40 0.40 79 1016.6
20260507180253 78 238 8.0 15.0 0.00 0.40 0.40 80 1016.8
20260507175748 78 260 6.0 17.0 0.00 0.40 0.40 81 1016.7
20260507175246 78 203 10.0 13.0 0.00 0.40 0.40 81 1016.4
20260507174743 77 182 3.0 14.0 0.00 0.40 0.40 81 1016.5
20260507174241 76 279 7.0 11.0 0.00 0.40 0.40 82 1016.7
20260507173738 76 251 13.0 20.0 0.00 0.40 0.40 81 1016.9
20260507173235 76 289 7.0 10.0 0.00 0.40 0.40 82 1016.8
20260507172731 76 238 6.0 21.0 0.00 0.40 0.40 81 1017.1
20260507172229 76 238 10.0 15.0 0.00 0.40 0.40 81 1016.7
20260507171728 76 257 6.0 10.0 0.00 0.40 0.40 82 1016.5
20260507171226 76 228 3.0 11.0 0.00 0.40 0.40 82 1016.6
20260507170723 76 245 5.0 13.0 0.00 0.40 0.40 81 1016.9
20260507170220 76 249 7.0 16.0 0.00 0.40 0.40 81 1016.6
20260507165715 77 241 8.0 15.0 0.00 0.40 0.40 81 1016.9
20260507165212 76 237 5.0 14.0 0.00 0.40 0.40 81 1016.6
20260507164708 76 261 11.0 16.0 0.00 0.40 0.40 82 1016.5
20260507164206 76 251 4.0 16.0 0.00 0.40 0.40 82 1016.6
20260507163702 76 222 7.0 13.0 0.00 0.40 0.40 82 1016.8
20260507163201 75 218 6.0 10.0 0.00 0.40 0.40 84 1016.9
20260507162656 75 229 7.0 16.0 0.00 0.40 0.40 84 1017.3
20260507162152 75 216 6.0 8.0 0.00 0.40 0.40 85 1016.9
20260507161648 74 221 7.0 11.0 0.00 0.40 0.40 85 1017.2
20260507161145 74 258 7.0 11.0 0.00 0.40 0.40 86 1017.2
20260507160642 74 234 5.0 9.0 0.00 0.40 0.40 86 1017.3
20260507160138 74 193 3.0 5.0 0.00 0.40 0.40 87 1017.4
20260507155634 73 197 6.0 13.0 0.00 0.40 0.40 87 1017.4
20260507155131 73 178 1.0 8.0 0.05 0.40 0.40 87 1017.6
20260507154627 73 214 6.0 7.0 0.05 0.40 0.40 88 1017.9
20260507154125 73 210 3.0 7.0 0.00 0.39 0.39 89 1018.2
20260507153621 72 213 3.0 7.0 0.00 0.39 0.39 90 1018.1
20260507153118 72 219 5.0 6.0 0.00 0.39 0.39 90 1018.3
20260507152614 71 166 1.0 7.0 0.00 0.39 0.39 91 1018.2
20260507152110 71 264 3.0 5.0 0.00 0.39 0.39 91 1018.3
20260507151606 71 196 3.0 7.0 0.07 0.39 0.39 91 1018.4
20260507151103 71 220 5.0 7.0 0.07 0.39 0.39 91 1018.4
20260507150601 70 221 2.0 5.0 0.00 0.38 0.38 92 1018.4
20260507150057 71 230 4.0 6.0 0.00 0.38 0.38 92 1018.9
20260507145552 70 207 3.0 6.0 0.00 0.38 0.38 91 1018.4
20260507145050 70 221 3.0 5.0 0.00 0.38 0.38 91 1018.3
20260507144546 70 199 2.0 6.0 0.05 0.38 0.38 91 1018.2
20260507144044 70 235 5.0 6.0 0.00 0.37 0.37 91 1018.4
20260507143540 70 229 4.0 6.0 0.00 0.37 0.37 91 1018.2
20260507143038 70 171 5.0 7.0 0.00 0.37 0.37 91 1018.2
20260507142533 70 240 5.0 8.0 0.00 0.37 0.37 92 1018.1
20260507142031 70 202 4.0 7.0 0.07 0.37 0.37 92 1018.0
20260507141526 69 213 3.0 6.0 0.00 0.36 0.36 93 1018.0
20260507141023 69 217 4.0 8.0 0.00 0.36 0.36 93 1017.9
20260507140520 69 231 6.0 7.0 0.00 0.36 0.36 93 1017.8
20260507140012 69 200 3.0 7.0 0.05 0.36 0.36 94 1018.0
20260507135508 69 181 3.0 6.0 0.05 0.36 0.36 94 1017.7
20260507135005 69 199 5.0 8.0 0.00 0.35 0.35 94 1017.8
20260507134502 69 202 6.0 7.0 0.00 0.35 0.35 95 1017.7
20260507133957 68 181 5.0 7.0 0.00 0.35 0.35 95 1017.7
20260507133454 68 193 3.0 7.0 0.07 0.35 0.35 95 1017.5
20260507132953 68 201 5.0 7.0 0.07 0.35 0.35 96 1017.7
20260507132448 68 160 5.0 9.0 0.00 0.34 0.34 96 1018.0
20260507131945 68 243 5.0 9.0 0.00 0.34 0.34 96 1018.2
20260507131442 68 232 5.0 9.0 0.07 0.34 0.34 96 1018.2
20260507130939 68 234 7.0 9.0 0.07 0.34 0.34 96 1018.3
20260507130436 67 223 7.0 10.0 0.00 0.33 0.33 96 1018.3
20260507125935 67 197 4.0 9.0 0.05 0.33 0.33 96 1018.3
20260507125432 67 199 3.0 6.0 0.05 0.33 0.33 96 1018.5
20260507124929 67 240 3.0 6.0 0.00 0.32 0.32 96 1018.3
20260507124425 67 190 3.0 7.0 0.07 0.32 0.32 96 1018.3
20260507123924 67 203 3.0 5.0 0.07 0.32 0.32 96 1018.1
20260507123421 67 171 2.0 7.0 0.00 0.31 0.31 96 1018.3
20260507122917 66 189 4.0 5.0 0.05 0.31 0.31 96 1018.4
20260507122412 66 210 2.0 3.0 0.05 0.31 0.31 95 1018.0
20260507121909 66 177 2.0 3.0 0.00 0.30 0.30 95 1017.9
20260507121404 66 160 3.0 5.0 0.07 0.30 0.30 95 1018.4
20260507120901 66 224 2.0 7.0 0.07 0.30 0.30 95 1018.9
20260507120357 66 172 3.0 7.0 0.05 0.29 0.29 95 1018.7
20260507115854 66 218 4.0 5.0 0.05 0.29 0.29 94 1018.3
20260507115350 66 167 1.0 1.0 0.00 0.28 0.28 94 1018.0
20260507114846 66 225 3.0 3.0 0.07 0.28 0.28 94 1017.8
20260507114343 66 257 6.0 7.0 0.07 0.28 0.28 94 1017.9
20260507113840 66 83 2.0 2.0 0.05 0.27 0.27 94 1018.0
20260507113337 66 358 5.0 6.0 0.05 0.27 0.27 94 1018.1
20260507112835 66 354 3.0 6.0 0.07 0.26 0.26 94 1017.9
20260507112331 66 211 1.0 2.0 0.07 0.26 0.26 93 1017.1
20260507111830 66 217 2.0 3.0 0.05 0.25 0.25 93 1017.3
20260507111326 65 41 1.0 5.0 0.05 0.25 0.25 93 1017.6
20260507110822 65 359 2.0 6.0 0.07 0.24 0.24 93 1017.5
20260507110319 65 190 3.0 5.0 0.07 0.24 0.24 93 1017.4
20260507105816 65 216 2.0 8.0 0.05 0.23 0.23 93 1017.3
20260507105312 65 201 7.0 14.0 0.05 0.23 0.23 94 1016.7
20260507104809 65 178 13.0 17.0 0.07 0.22 0.22 95 1017.3
20260507104305 65 208 9.0 16.0 0.07 0.22 0.22 96 1017.8
20260507103802 66 184 9.0 18.0 0.07 0.21 0.21 97 1018.0
20260507103258 66 203 15.0 17.0 0.05 0.20 0.20 98 1018.1
20260507102755 67 192 13.0 16.0 0.12 0.20 0.20 97 1018.7
20260507102251 67 163 8.0 13.0 0.07 0.19 0.19 98 1019.3
20260507101747 67 198 12.0 14.0 0.05 0.18 0.18 97 1019.4
20260507101242 68 175 6.0 9.0 0.05 0.18 0.18 97 1019.8
20260507100740 67 176 6.0 8.0 0.07 0.17 0.17 97 1019.8
20260507100238 67 186 2.0 3.0 0.07 0.17 0.17 97 1020.1
20260507095736 67 191 3.0 6.0 0.05 0.16 0.16 97 1019.7
20260507095232 68 194 5.0 6.0 0.07 0.15 0.15 97 1019.6
20260507094729 68 176 3.0 5.0 0.07 0.15 0.15 97 1019.5
20260507094226 68 154 2.0 2.0 0.05 0.14 0.14 96 1019.7
20260507093723 68 150 2.0 2.0 0.12 0.14 0.14 96 1019.6
20260507093221 68 109 1.0 1.0 0.07 0.13 0.13 96 1019.6
20260507092718 68 139 1.0 2.0 0.05 0.12 0.12 96 1020.2
20260507092214 68 167 1.0 2.0 0.05 0.12 0.12 95 1020.4
20260507091711 68 157 4.0 6.0 0.07 0.11 0.11 95 1020.3
20260507091208 68 194 3.0 5.0 0.07 0.10 0.10 95 1020.8
20260507090703 68 158 1.0 3.0 0.12 0.10 0.10 94 1021.6
20260507090200 68 324 3.0 6.0 0.24 0.09 0.09 94 1022.1
20260507085657 69 173 2.0 9.0 0.24 0.07 0.07 93 1022.3